Time,TemperatureF,DewpointF,PressureIn,WindDirection,WindDirectionDegrees,WindSpeedMPH,WindSpeedGustMPH,Humidity,HourlyPrecipIn,Conditions,Clouds,dailyrainin,SoftwareType,DateUTC
2013-06-30 00:01:00,73.7,63.3,29.80,West,262,0.0,0.0,70,0.00,,---,0.00,VWS V14.01,2013-06-30 07:01:00,
2013-06-30 00:06:00,73.5,63.1,29.80,West,262,0.0,0.0,70,0.00,,---,0.00,VWS V14.01,2013-06-30 07:06:00,
2013-06-30 00:11:00,73.2,62.8,29.79,West,262,0.0,0.0,70,0.00,,---,0.00,VWS V14.01,2013-06-30 07:11:00,
2013-06-30 00:16:00,72.9,63.0,29.80,West,262,0.0,0.0,71,0.00,,---,0.00,VWS V14.01,2013-06-30 07:16:00,
2013-06-30 00:21:00,72.7,63.5,29.80,West,262,0.0,0.0,73,0.00,,---,0.00,VWS V14.01,2013-06-30 07:21:00,
2013-06-30 00:26:00,72.6,63.5,29.80,West,262,0.0,0.0,73,0.00,,---,0.00,VWS V14.01,2013-06-30 07:26:00,
2013-06-30 00:31:00,72.2,62.7,29.79,West,262,0.0,0.0,72,0.00,,---,0.00,VWS V14.01,2013-06-30 07:31:00,
2013-06-30 00:36:00,71.9,63.2,29.79,West,262,0.0,0.0,74,0.00,,---,0.00,VWS V14.01,2013-06-30 07:36:00,
2013-06-30 00:41:00,71.8,63.5,29.79,West,262,0.0,0.0,75,0.00,,---,0.00,VWS V14.01,2013-06-30 07:41:00,
2013-06-30 00:45:00,71.8,63.8,29.79,West,262,0.0,0.0,76,0.00,,---,0.00,VWS V14.01,2013-06-30 07:45:00,
2013-06-30 00:50:00,71.7,63.7,29.79,West,262,0.0,0.0,76,0.00,,---,0.00,VWS V14.01,2013-06-30 07:50:00,
2013-06-30 00:55:00,71.6,63.6,29.79,West,262,0.0,0.0,76,0.00,,---,0.00,VWS V14.01,2013-06-30 07:55:00,
2013-06-30 01:00:00,71.3,63.3,29.79,West,262,0.0,0.0,76,0.00,,---,0.00,VWS V14.01,2013-06-30 08:00:00,
2013-06-30 01:05:00,71.1,63.9,29.78,West,262,0.0,0.0,78,0.00,,---,0.00,VWS V14.01,2013-06-30 08:05:00,
2013-06-30 01:10:00,70.8,63.6,29.78,West,262,0.0,0.0,78,0.00,,---,0.00,VWS V14.01,2013-06-30 08:10:00,
2013-06-30 01:15:00,70.7,63.5,29.78,West,262,0.0,0.0,78,0.00,,---,0.00,VWS V14.01,2013-06-30 08:15:00,
2013-06-30 01:20:00,70.6,63.4,29.78,West,262,0.0,0.0,78,0.00,,---,0.00,VWS V14.01,2013-06-30 08:20:00,
2013-06-30 01:25:00,70.6,63.8,29.78,West,262,0.0,0.0,79,0.00,,---,0.00,VWS V14.01,2013-06-30 08:25:00,
2013-06-30 01:30:00,70.4,63.6,29.78,West,262,0.0,0.0,79,0.00,,---,0.00,VWS V14.01,2013-06-30 08:30:00,
2013-06-30 01:35:00,70.1,63.3,29.77,West,262,0.0,0.0,79,0.00,,---,0.00,VWS V14.01,2013-06-30 08:35:00,
2013-06-30 01:40:00,70.0,63.2,29.77,West,262,0.0,0.0,79,0.00,,---,0.00,VWS V14.01,2013-06-30 08:40:00,
2013-06-30 01:45:00,69.9,63.1,29.77,West,262,0.0,0.0,79,0.00,,---,0.00,VWS V14.01,2013-06-30 08:45:00,
2013-06-30 01:50:00,69.5,62.7,29.77,West,262,0.0,0.0,79,0.00,,---,0.00,VWS V14.01,2013-06-30 08:50:00,
2013-06-30 01:55:00,69.2,62.4,29.77,West,262,0.0,0.0,79,0.00,,---,0.00,VWS V14.01,2013-06-30 08:55:00,
2013-06-30 02:00:00,68.9,62.5,29.77,West,262,0.0,0.0,80,0.00,,---,0.00,VWS V14.01,2013-06-30 09:00:00,
2013-06-30 02:05:00,68.7,62.6,29.76,West,262,0.0,0.0,81,0.00,,---,0.00,VWS V14.01,2013-06-30 09:05:00,
2013-06-30 02:10:00,68.6,63.2,29.76,West,262,0.0,0.0,83,0.00,,---,0.00,VWS V14.01,2013-06-30 09:10:00,
2013-06-30 02:15:00,68.8,63.4,29.76,West,262,0.0,0.0,83,0.00,,---,0.00,VWS V14.01,2013-06-30 09:15:00,
2013-06-30 02:20:00,68.7,63.3,29.76,West,262,0.0,0.0,83,0.00,,---,0.00,VWS V14.01,2013-06-30 09:20:00,
2013-06-30 02:25:00,68.7,63.3,29.76,West,262,0.0,0.0,83,0.00,,---,0.00,VWS V14.01,2013-06-30 09:25:00,
2013-06-30 02:30:00,68.5,63.1,29.76,West,262,0.0,0.0,83,0.00,,---,0.00,VWS V14.01,2013-06-30 09:30:00,
2013-06-30 02:35:00,68.3,62.9,29.76,West,262,0.0,0.0,83,0.00,,---,0.00,VWS V14.01,2013-06-30 09:35:00,
2013-06-30 02:40:00,68.1,62.8,29.75,West,262,0.0,0.0,83,0.00,,---,0.00,VWS V14.01,2013-06-30 09:40:00,
2013-06-30 02:45:00,67.9,62.5,29.75,West,262,0.0,0.0,83,0.00,,---,0.00,VWS V14.01,2013-06-30 09:45:00,
2013-06-30 02:50:00,67.8,62.8,29.75,West,262,0.0,0.0,84,0.00,,---,0.00,VWS V14.01,2013-06-30 09:50:00,
2013-06-30 02:55:00,67.9,62.5,29.75,West,262,0.0,0.0,83,0.00,,---,0.00,VWS V14.01,2013-06-30 09:55:00,
2013-06-30 03:00:00,68.2,63.2,29.75,West,262,0.0,0.0,84,0.00,,---,0.00,VWS V14.01,2013-06-30 10:00:00,
2013-06-30 03:05:00,68.3,63.3,29.75,West,262,0.0,0.0,84,0.00,,---,0.00,VWS V14.01,2013-06-30 10:05:00,
2013-06-30 03:10:00,68.3,63.3,29.75,West,262,0.0,0.0,84,0.00,,---,0.00,VWS V14.01,2013-06-30 10:10:00,
2013-06-30 03:15:00,68.1,63.1,29.75,West,262,0.0,0.0,84,0.00,,---,0.00,VWS V14.01,2013-06-30 10:15:00,
2013-06-30 03:20:00,68.0,63.0,29.75,West,262,0.0,0.0,84,0.00,,---,0.00,VWS V14.01,2013-06-30 10:20:00,
2013-06-30 03:25:00,67.8,63.1,29.75,West,262,0.0,0.0,85,0.00,,---,0.00,VWS V14.01,2013-06-30 10:25:00,
2013-06-30 03:30:00,67.6,62.9,29.75,West,262,0.0,0.0,85,0.00,,---,0.00,VWS V14.01,2013-06-30 10:30:00,
2013-06-30 03:35:00,67.4,62.4,29.75,West,262,0.0,0.0,84,0.00,,---,0.00,VWS V14.01,2013-06-30 10:35:00,
2013-06-30 03:40:00,67.2,62.2,29.75,West,262,0.0,0.0,84,0.00,,---,0.00,VWS V14.01,2013-06-30 10:40:00,
2013-06-30 03:45:00,67.1,62.1,29.75,West,262,0.0,0.0,84,0.00,,---,0.00,VWS V14.01,2013-06-30 10:45:00,
2013-06-30 03:50:00,67.3,62.3,29.75,West,262,0.0,0.0,84,0.00,,---,0.00,VWS V14.01,2013-06-30 10:50:00,
2013-06-30 03:55:00,67.2,62.2,29.75,West,262,0.0,0.0,84,0.00,,---,0.00,VWS V14.01,2013-06-30 10:55:00,
2013-06-30 04:00:00,67.1,62.1,29.75,West,262,0.0,0.0,84,0.00,,---,0.00,VWS V14.01,2013-06-30 11:00:00,
2013-06-30 04:05:00,67.0,62.0,29.75,West,262,0.0,0.0,84,0.00,,---,0.00,VWS V14.01,2013-06-30 11:05:00,
2013-06-30 04:10:00,66.9,61.9,29.74,West,262,0.0,0.0,84,0.00,,---,0.00,VWS V14.01,2013-06-30 11:10:00,
2013-06-30 04:15:00,66.9,61.9,29.75,West,262,0.0,0.0,84,0.00,,---,0.00,VWS V14.01,2013-06-30 11:15:00,
2013-06-30 04:20:00,66.8,61.8,29.75,West,262,0.0,0.0,84,0.00,,---,0.00,VWS V14.01,2013-06-30 11:20:00,
2013-06-30 04:25:00,66.9,61.9,29.75,West,262,0.0,0.0,84,0.00,,---,0.00,VWS V14.01,2013-06-30 11:25:00,
2013-06-30 04:30:00,67.2,61.9,29.75,West,262,0.0,0.0,83,0.00,,---,0.00,VWS V14.01,2013-06-30 11:30:00,
2013-06-30 04:35:00,67.2,61.9,29.75,West,262,0.0,0.0,83,0.00,,---,0.00,VWS V14.01,2013-06-30 11:35:00,
2013-06-30 04:40:00,67.3,62.0,29.75,West,262,0.0,0.0,83,0.00,,---,0.00,VWS V14.01,2013-06-30 11:40:00,
2013-06-30 04:45:00,67.5,62.5,29.75,West,262,0.0,0.0,84,0.00,,---,0.00,VWS V14.01,2013-06-30 11:45:00,
2013-06-30 04:50:00,67.5,62.5,29.75,West,262,0.0,0.0,84,0.00,,---,0.00,VWS V14.01,2013-06-30 11:50:00,
2013-06-30 04:55:00,67.5,62.5,29.75,West,262,0.0,0.0,84,0.00,,---,0.00,VWS V14.01,2013-06-30 11:55:00,
2013-06-30 05:00:00,67.5,62.8,29.75,West,262,0.0,0.0,85,0.00,,---,0.00,VWS V14.01,2013-06-30 12:00:00,
2013-06-30 05:05:00,67.6,62.9,29.75,West,262,0.0,0.0,85,0.00,,---,0.00,VWS V14.01,2013-06-30 12:05:00,
2013-06-30 05:10:00,67.6,63.3,29.75,West,262,0.0,0.0,86,0.00,,---,0.00,VWS V14.01,2013-06-30 12:10:00,
2013-06-30 05:15:00,67.7,63.4,29.75,West,262,0.0,0.0,86,0.00,,---,0.00,VWS V14.01,2013-06-30 12:15:00,
2013-06-30 05:20:00,67.8,63.5,29.75,West,262,0.0,0.0,86,0.00,,---,0.00,VWS V14.01,2013-06-30 12:20:00,
2013-06-30 05:25:00,67.8,63.5,29.75,West,262,0.0,0.0,86,0.00,,---,0.00,VWS V14.01,2013-06-30 12:25:00,
2013-06-30 05:30:00,67.7,63.4,29.75,West,262,0.0,0.0,86,0.00,,---,0.00,VWS V14.01,2013-06-30 12:30:00,
2013-06-30 05:35:00,67.8,63.5,29.76,West,262,0.0,0.0,86,0.00,,---,0.00,VWS V14.01,2013-06-30 12:35:00,
2013-06-30 05:40:00,67.9,63.6,29.76,West,262,0.0,0.0,86,0.00,,---,0.00,VWS V14.01,2013-06-30 12:40:00,
2013-06-30 05:45:00,67.7,63.0,29.76,West,262,0.0,0.0,85,0.00,,---,0.00,VWS V14.01,2013-06-30 12:45:00,
2013-06-30 05:50:00,67.5,62.5,29.76,West,262,0.0,0.0,84,0.00,,---,0.00,VWS V14.01,2013-06-30 12:50:00,
2013-06-30 05:55:00,67.0,62.0,29.76,West,262,0.0,0.0,84,0.00,,---,0.00,VWS V14.01,2013-06-30 12:55:00,
2013-06-30 06:00:00,66.8,62.5,29.76,West,262,0.0,0.0,86,0.00,,---,0.00,VWS V14.01,2013-06-30 13:00:00,
2013-06-30 06:05:00,66.9,62.9,29.76,West,262,0.0,0.0,87,0.00,,---,0.00,VWS V14.01,2013-06-30 13:05:00,
2013-06-30 06:10:00,67.1,63.1,29.76,West,262,0.0,0.0,87,0.00,,---,0.00,VWS V14.01,2013-06-30 13:10:00,
2013-06-30 06:15:00,67.3,63.3,29.76,West,262,0.0,0.0,87,0.00,,---,0.00,VWS V14.01,2013-06-30 13:15:00,
2013-06-30 06:20:00,67.6,63.6,29.76,West,262,0.0,0.0,87,0.00,,---,0.00,VWS V14.01,2013-06-30 13:20:00,
2013-06-30 06:25:00,67.9,63.6,29.76,West,262,0.0,1.0,86,0.00,,---,0.00,VWS V14.01,2013-06-30 13:25:00,
2013-06-30 06:30:00,68.2,63.9,29.76,West,262,0.0,0.0,86,0.00,,---,0.00,VWS V14.01,2013-06-30 13:30:00,
2013-06-30 06:35:00,68.4,63.7,29.76,West,262,0.0,0.0,85,0.00,,---,0.00,VWS V14.01,2013-06-30 13:35:00,
2013-06-30 06:40:00,68.7,64.0,29.76,West,262,0.0,0.0,85,0.00,,---,0.00,VWS V14.01,2013-06-30 13:40:00,
2013-06-30 06:45:00,69.1,64.4,29.76,West,262,0.0,0.0,85,0.00,,---,0.00,VWS V14.01,2013-06-30 13:45:00,
2013-06-30 06:50:00,69.5,64.5,29.77,West,262,0.0,0.0,84,0.00,,---,0.00,VWS V14.01,2013-06-30 13:50:00,
2013-06-30 06:55:00,69.9,64.2,29.77,SSW,213,0.0,1.0,82,0.00,,---,0.00,VWS V14.01,2013-06-30 13:55:00,
2013-06-30 07:00:00,70.1,64.0,29.77,SSE,156,0.0,0.0,81,0.00,,---,0.00,VWS V14.01,2013-06-30 14:00:00,
2013-06-30 07:05:00,70.5,64.8,29.77,SSE,156,0.0,0.0,82,0.00,,---,0.00,VWS V14.01,2013-06-30 14:05:00,
2013-06-30 07:10:00,71.1,64.6,29.78,SSE,156,0.0,0.0,80,0.00,,---,0.00,VWS V14.01,2013-06-30 14:10:00,
2013-06-30 07:15:00,71.6,64.8,29.78,SSE,156,0.0,0.0,79,0.00,,---,0.00,VWS V14.01,2013-06-30 14:15:00,
2013-06-30 07:20:00,72.1,65.2,29.78,SSE,156,0.0,0.0,79,0.00,,---,0.00,VWS V14.01,2013-06-30 14:20:00,
2013-06-30 07:25:00,72.6,65.3,29.78,SSE,156,0.0,0.0,78,0.00,,---,0.00,VWS V14.01,2013-06-30 14:25:00,
2013-06-30 07:30:00,72.8,65.6,29.78,SSE,156,0.0,1.0,78,0.00,,---,0.00,VWS V14.01,2013-06-30 14:30:00,
2013-06-30 07:35:00,73.0,65.7,29.78,SSE,156,0.0,1.0,78,0.00,,---,0.00,VWS V14.01,2013-06-30 14:35:00,
2013-06-30 07:40:00,73.5,65.9,29.78,SSE,156,0.0,1.0,77,0.00,,---,0.00,VWS V14.01,2013-06-30 14:40:00,
2013-06-30 07:45:00,74.0,65.6,29.78,SSE,156,0.0,1.0,75,0.00,,---,0.00,VWS V14.01,2013-06-30 14:45:00,
2013-06-30 07:50:00,74.1,66.1,29.78,SSE,156,0.0,1.0,76,0.00,,---,0.00,VWS V14.01,2013-06-30 14:50:00,
2013-06-30 07:55:00,74.6,65.8,29.78,SSE,156,1.0,1.0,74,0.00,,---,0.00,VWS V14.01,2013-06-30 14:55:00,
2013-06-30 08:00:00,74.9,66.1,29.78,SSE,156,0.0,1.0,74,0.00,,---,0.00,VWS V14.01,2013-06-30 15:00:00,
2013-06-30 08:05:00,75.8,65.7,29.78,SSE,156,0.0,1.0,71,0.00,,---,0.00,VWS V14.01,2013-06-30 15:05:00,
2013-06-30 08:10:00,76.3,65.8,29.78,SSE,156,0.0,1.0,70,0.00,,---,0.00,VWS V14.01,2013-06-30 15:10:00,
2013-06-30 08:15:00,76.7,66.6,29.78,SSE,156,0.0,1.0,71,0.00,,---,0.00,VWS V14.01,2013-06-30 15:15:00,
2013-06-30 08:20:00,77.5,66.1,29.78,SSE,156,0.0,1.0,68,0.00,,---,0.00,VWS V14.01,2013-06-30 15:20:00,
2013-06-30 08:25:00,77.8,66.4,29.78,SE,142,2.0,2.0,68,0.00,,---,0.00,VWS V14.01,2013-06-30 15:25:00,
2013-06-30 08:30:00,77.5,66.1,29.78,SE,140,0.0,2.0,68,0.00,,---,0.00,VWS V14.01,2013-06-30 15:30:00,
2013-06-30 08:35:00,77.9,66.9,29.78,SE,140,0.0,2.0,69,0.00,,---,0.00,VWS V14.01,2013-06-30 15:35:00,
2013-06-30 08:40:00,78.4,66.6,29.78,SE,125,1.0,4.0,67,0.00,,---,0.00,VWS V14.01,2013-06-30 15:40:00,
2013-06-30 08:45:00,78.3,66.4,29.78,SE,126,1.0,4.0,67,0.00,,---,0.00,VWS V14.01,2013-06-30 15:45:00,
2013-06-30 08:50:00,78.5,66.2,29.78,ESE,111,4.0,5.0,66,0.00,,---,0.00,VWS V14.01,2013-06-30 15:50:00,
2013-06-30 08:55:00,78.7,66.4,29.79,SE,132,0.0,5.0,66,0.00,,---,0.00,VWS V14.01,2013-06-30 15:55:00,
2013-06-30 09:00:00,79.3,67.0,29.79,SE,133,0.0,5.0,66,0.00,,---,0.00,VWS V14.01,2013-06-30 16:00:00,
2013-06-30 09:05:00,79.8,67.0,29.79,SW,220,0.0,5.0,65,0.00,,---,0.00,VWS V14.01,2013-06-30 16:05:00,
2013-06-30 09:10:00,80.5,66.8,29.79,SSE,150,0.0,5.0,63,0.00,,---,0.00,VWS V14.01,2013-06-30 16:10:00,
2013-06-30 09:15:00,81.0,66.8,29.79,SE,132,0.0,5.0,62,0.00,,---,0.00,VWS V14.01,2013-06-30 16:15:00,
2013-06-30 09:20:00,81.3,66.6,29.79,South,169,6.0,6.0,61,0.00,,---,0.00,VWS V14.01,2013-06-30 16:20:00,
2013-06-30 09:25:00,81.7,66.0,29.79,SE,141,0.0,6.0,59,0.00,,---,0.00,VWS V14.01,2013-06-30 16:25:00,
2013-06-30 09:30:00,81.8,66.1,29.78,SSE,149,2.0,4.0,59,0.00,,---,0.00,VWS V14.01,2013-06-30 16:30:00,
2013-06-30 09:35:00,82.2,66.5,29.78,East,99,0.0,4.0,59,0.00,,---,0.00,VWS V14.01,2013-06-30 16:35:00,
2013-06-30 09:40:00,82.8,66.5,29.78,SE,126,0.0,5.0,58,0.00,,---,0.00,VWS V14.01,2013-06-30 16:40:00,
2013-06-30 09:45:00,83.3,67.0,29.78,ESE,111,0.0,5.0,58,0.00,,---,0.00,VWS V14.01,2013-06-30 16:45:00,
2013-06-30 09:50:00,84.0,67.1,29.78,SSW,205,0.0,6.0,57,0.00,,---,0.00,VWS V14.01,2013-06-30 16:50:00,
2013-06-30 09:55:00,84.2,67.3,29.79,ESE,116,4.0,7.0,57,0.00,,---,0.00,VWS V14.01,2013-06-30 16:55:00,
2013-06-30 10:00:00,84.4,67.5,29.79,ESE,123,2.0,4.0,57,0.00,,---,0.00,VWS V14.01,2013-06-30 17:00:00,
2013-06-30 10:05:00,84.9,68.0,29.78,SE,146,1.0,5.0,57,0.00,,---,0.00,VWS V14.01,2013-06-30 17:05:00,
2013-06-30 10:10:00,85.1,67.7,29.78,SSW,211,0.0,5.0,56,0.00,,---,0.00,VWS V14.01,2013-06-30 17:10:00,
2013-06-30 10:15:00,85.4,67.9,29.78,SSE,165,0.0,5.0,56,0.00,,---,0.00,VWS V14.01,2013-06-30 17:15:00,
2013-06-30 10:20:00,86.0,68.5,29.79,NW,304,0.0,5.0,56,0.00,,---,0.00,VWS V14.01,2013-06-30 17:20:00,
2013-06-30 10:25:00,86.3,67.2,29.79,ESE,119,1.0,7.0,53,0.00,,---,0.00,VWS V14.01,2013-06-30 17:25:00,
2013-06-30 10:30:00,86.8,67.6,29.79,SSE,164,2.0,2.0,53,0.00,,---,0.00,VWS V14.01,2013-06-30 17:30:00,
2013-06-30 10:35:00,87.3,68.6,29.79,East,82,4.0,5.0,54,0.00,,---,0.00,VWS V14.01,2013-06-30 17:35:00,
2013-06-30 10:40:00,87.9,68.1,29.79,SSE,165,0.0,6.0,52,0.00,,---,0.00,VWS V14.01,2013-06-30 17:40:00,
2013-06-30 10:45:00,87.9,68.1,29.79,SSE,148,4.0,6.0,52,0.00,,---,0.00,VWS V14.01,2013-06-30 17:45:00,
2013-06-30 10:50:00,88.2,68.4,29.79,South,184,3.0,7.0,52,0.00,,---,0.00,VWS V14.01,2013-06-30 17:50:00,
2013-06-30 10:55:00,89.0,68.5,29.80,SSW,201,0.0,7.0,51,0.00,,---,0.00,VWS V14.01,2013-06-30 17:55:00,
2013-06-30 11:00:00,89.5,67.8,29.80,SW,219,0.0,6.0,49,0.00,,---,0.00,VWS V14.01,2013-06-30 18:00:00,
2013-06-30 11:05:00,90.0,67.7,29.80,South,186,0.0,6.0,48,0.00,,---,0.00,VWS V14.01,2013-06-30 18:05:00,
2013-06-30 11:10:00,89.8,67.5,29.80,SSW,209,1.0,11.0,48,0.00,,---,0.00,VWS V14.01,2013-06-30 18:10:00,
2013-06-30 11:15:00,89.2,67.6,29.80,SSE,153,0.0,11.0,49,0.00,,---,0.00,VWS V14.01,2013-06-30 18:15:00,
2013-06-30 11:20:00,90.1,67.8,29.80,SSE,162,5.0,11.0,48,0.00,,---,0.00,VWS V14.01,2013-06-30 18:20:00,
2013-06-30 11:25:00,90.3,67.3,29.80,SE,143,6.0,11.0,47,0.00,,---,0.00,VWS V14.01,2013-06-30 18:25:00,
2013-06-30 11:30:00,90.1,65.9,29.80,SSE,151,5.0,6.0,45,0.00,,---,0.00,VWS V14.01,2013-06-30 18:30:00,
2013-06-30 11:35:00,89.8,67.5,29.80,NW,311,1.0,8.0,48,0.00,,---,0.00,VWS V14.01,2013-06-30 18:35:00,
2013-06-30 11:40:00,90.1,67.2,29.80,SW,214,4.0,8.0,47,0.00,,---,0.00,VWS V14.01,2013-06-30 18:40:00,
2013-06-30 11:45:00,90.0,67.1,29.80,ESE,106,0.0,10.0,47,0.00,,---,0.00,VWS V14.01,2013-06-30 18:45:00,
2013-06-30 11:50:00,90.0,67.1,29.80,South,171,1.0,10.0,47,0.00,,---,0.00,VWS V14.01,2013-06-30 18:50:00,
2013-06-30 11:55:00,90.1,67.8,29.80,SSW,207,1.0,10.0,48,0.00,,---,0.00,VWS V14.01,2013-06-30 18:55:00,
2013-06-30 12:00:00,89.7,67.4,29.80,SSW,194,3.0,7.0,48,0.00,,---,0.00,VWS V14.01,2013-06-30 19:00:00,
2013-06-30 12:05:00,89.3,67.7,29.80,South,176,2.0,7.0,49,0.00,,---,0.00,VWS V14.01,2013-06-30 19:05:00,
2013-06-30 12:10:00,89.4,68.3,29.81,SSW,211,0.0,8.0,50,0.00,,---,0.00,VWS V14.01,2013-06-30 19:10:00,
2013-06-30 12:15:00,90.1,67.8,29.81,SW,227,4.0,8.0,48,0.00,,---,0.00,VWS V14.01,2013-06-30 19:15:00,
2013-06-30 12:20:00,89.5,66.6,29.81,South,181,4.0,9.0,47,0.00,,---,0.00,VWS V14.01,2013-06-30 19:20:00,
2013-06-30 12:25:00,88.6,66.4,29.81,South,173,6.0,10.0,48,0.00,,---,0.00,VWS V14.01,2013-06-30 19:25:00,
2013-06-30 12:30:00,88.3,66.1,29.81,South,180,5.0,9.0,48,0.00,,---,0.00,VWS V14.01,2013-06-30 19:30:00,
2013-06-30 12:35:00,87.2,66.3,29.81,WNW,290,0.0,9.0,50,0.00,,---,0.00,VWS V14.01,2013-06-30 19:35:00,
2013-06-30 12:40:00,87.2,66.3,29.82,SE,133,6.0,9.0,50,0.00,,---,0.00,VWS V14.01,2013-06-30 19:40:00,
2013-06-30 12:45:00,86.1,66.4,29.82,East,84,3.0,13.0,52,0.00,,---,0.00,VWS V14.01,2013-06-30 19:45:00,
2013-06-30 12:50:00,85.3,66.8,29.82,SSW,194,1.0,13.0,54,0.00,,---,0.00,VWS V14.01,2013-06-30 19:50:00,
2013-06-30 12:55:00,85.1,66.6,29.82,WSW,251,0.0,13.0,54,0.00,,---,0.00,VWS V14.01,2013-06-30 19:55:00,
2013-06-30 13:00:00,84.7,65.7,29.83,NE,55,1.0,4.0,53,0.00,,---,0.00,VWS V14.01,2013-06-30 20:00:00,
2013-06-30 13:05:00,84.1,65.1,29.83,ESE,119,7.0,9.0,53,0.00,,---,0.00,VWS V14.01,2013-06-30 20:05:00,
2013-06-30 13:10:00,83.5,65.7,29.83,South,175,1.0,9.0,55,0.00,,---,0.00,VWS V14.01,2013-06-30 20:10:00,
2013-06-30 13:15:00,83.7,66.3,29.83,South,188,3.0,9.0,56,0.00,,---,0.00,VWS V14.01,2013-06-30 20:15:00,
2013-06-30 13:20:00,83.9,66.0,29.83,ESE,110,0.0,13.0,55,0.00,,---,0.00,VWS V14.01,2013-06-30 20:20:00,
2013-06-30 13:25:00,83.6,65.2,29.83,SSW,194,1.0,13.0,54,0.00,,---,0.00,VWS V14.01,2013-06-30 20:25:00,
2013-06-30 13:30:00,82.7,64.9,29.83,ESE,121,0.0,7.0,55,0.00,,---,0.00,VWS V14.01,2013-06-30 20:30:00,
2013-06-30 13:35:00,81.8,65.6,29.83,SW,225,2.0,8.0,58,0.00,,---,0.00,VWS V14.01,2013-06-30 20:35:00,
2013-06-30 13:40:00,80.5,65.8,29.83,SSW,198,0.0,8.0,61,0.00,,---,0.00,VWS V14.01,2013-06-30 20:40:00,
2013-06-30 13:45:00,80.1,65.9,29.83,SE,137,6.0,8.0,62,0.00,,---,0.00,VWS V14.01,2013-06-30 20:45:00,
2013-06-30 13:50:00,80.0,66.7,29.82,WNW,295,3.0,8.0,64,0.00,,---,0.00,VWS V14.01,2013-06-30 20:50:00,
2013-06-30 13:55:00,80.1,66.8,29.82,SSW,208,0.0,8.0,64,0.00,,---,0.00,VWS V14.01,2013-06-30 20:55:00,
2013-06-30 14:00:00,79.9,66.7,29.82,WSW,255,0.0,3.0,64,0.00,,---,0.00,VWS V14.01,2013-06-30 21:00:00,
2013-06-30 14:05:00,79.8,67.0,29.82,South,179,0.0,5.0,65,0.00,,---,0.00,VWS V14.01,2013-06-30 21:05:00,
2013-06-30 14:09:00,80.0,67.2,29.83,SE,130,0.0,5.0,65,0.00,,---,0.00,VWS V14.01,2013-06-30 21:09:00,
2013-06-30 14:14:00,79.9,67.1,29.83,SSE,159,7.0,14.0,65,0.00,,---,0.00,VWS V14.01,2013-06-30 21:14:00,
2013-06-30 14:19:00,78.9,67.0,29.83,South,172,2.0,14.0,67,0.00,,---,0.00,VWS V14.01,2013-06-30 21:19:00,
2013-06-30 14:20:00,78.9,67.0,29.83,SSW,192,4.0,14.0,67,0.00,,---,0.00,VWS V14.01,2013-06-30 21:20:00,
2013-06-30 14:25:00,78.4,67.0,29.83,South,171,1.0,14.0,68,0.00,,---,0.00,VWS V14.01,2013-06-30 21:25:00,
2013-06-30 14:30:00,78.2,66.8,29.83,SSW,204,0.0,6.0,68,0.00,,---,0.00,VWS V14.01,2013-06-30 21:30:00,
2013-06-30 14:35:00,78.2,66.4,29.83,SSW,199,0.0,6.0,67,0.00,,---,0.00,VWS V14.01,2013-06-30 21:35:00,
2013-06-30 14:40:00,78.1,66.3,29.83,WSW,239,0.0,6.0,67,0.00,,---,0.00,VWS V14.01,2013-06-30 21:40:00,
2013-06-30 14:45:00,78.1,66.3,29.83,SSW,211,2.0,6.0,67,0.00,,---,0.00,VWS V14.01,2013-06-30 21:45:00,
2013-06-30 14:49:00,78.0,66.2,29.83,SE,142,1.0,7.0,67,0.00,,---,0.00,VWS V14.01,2013-06-30 21:49:00,
2013-06-30 14:54:00,77.5,66.1,29.83,South,190,0.0,12.0,68,0.00,,---,0.00,VWS V14.01,2013-06-30 21:54:00,
2013-06-30 14:59:00,77.2,66.2,29.82,SSE,155,1.0,7.0,69,0.00,,---,0.00,VWS V14.01,2013-06-30 21:59:00,
2013-06-30 15:04:00,77.2,66.2,29.82,SSW,211,0.0,7.0,69,0.00,,---,0.00,VWS V14.01,2013-06-30 22:04:00,
2013-06-30 15:09:00,77.5,66.5,29.82,ENE,63,0.0,9.0,69,0.00,,---,0.00,VWS V14.01,2013-06-30 22:09:00,
2013-06-30 15:14:00,77.5,66.5,29.82,SE,145,2.0,9.0,69,0.00,,---,0.00,VWS V14.01,2013-06-30 22:14:00,
2013-06-30 15:19:00,77.7,66.7,29.82,SE,135,4.0,9.0,69,0.00,,---,0.00,VWS V14.01,2013-06-30 22:19:00,
2013-06-30 15:24:00,77.3,66.8,29.82,West,277,0.0,10.0,70,0.00,,---,0.00,VWS V14.01,2013-06-30 22:24:00,
2013-06-30 15:29:00,77.3,67.2,29.82,East,94,1.0,7.0,71,0.00,,---,0.00,VWS V14.01,2013-06-30 22:29:00,
2013-06-30 15:34:00,78.1,67.1,29.82,SSE,161,0.0,7.0,69,0.00,,---,0.00,VWS V14.01,2013-06-30 22:34:00,
2013-06-30 15:39:00,78.8,66.9,29.82,SSE,148,5.0,9.0,67,0.00,,---,0.00,VWS V14.01,2013-06-30 22:39:00,
2013-06-30 15:44:00,78.4,67.0,29.81,SE,130,0.0,11.0,68,0.00,,---,0.00,VWS V14.01,2013-06-30 22:44:00,
2013-06-30 15:50:00,78.6,66.3,29.81,SSE,153,0.0,11.0,66,0.00,,---,0.00,VWS V14.01,2013-06-30 22:50:00,
2013-06-30 15:55:00,78.2,66.4,29.81,West,259,2.0,11.0,67,0.00,,---,0.00,VWS V14.01,2013-06-30 22:55:00,
2013-06-30 16:00:00,78.6,66.7,29.81,SSE,165,0.0,1.0,67,0.00,,---,0.00,VWS V14.01,2013-06-30 23:00:00,
2013-06-30 16:05:00,78.8,66.9,29.80,SW,236,4.0,6.0,67,0.00,,---,0.00,VWS V14.01,2013-06-30 23:05:00,
2013-06-30 16:10:00,78.9,67.0,29.80,SW,222,1.0,6.0,67,0.00,,---,0.00,VWS V14.01,2013-06-30 23:10:00,
2013-06-30 16:15:00,79.1,66.3,29.80,WSW,257,0.0,6.0,65,0.00,,---,0.00,VWS V14.01,2013-06-30 23:15:00,
2013-06-30 16:19:00,79.2,66.0,29.80,South,171,0.0,7.0,64,0.00,,---,0.00,VWS V14.01,2013-06-30 23:19:00,
2013-06-30 16:24:00,79.7,66.5,29.80,SW,232,0.0,7.0,64,0.00,,---,0.00,VWS V14.01,2013-06-30 23:24:00,
2013-06-30 16:29:00,80.3,66.6,29.79,SSW,202,2.0,2.0,63,0.00,,---,0.00,VWS V14.01,2013-06-30 23:29:00,
2013-06-30 16:34:00,80.7,66.0,29.79,WNW,285,3.0,6.0,61,0.00,,---,0.00,VWS V14.01,2013-06-30 23:34:00,
2013-06-30 16:39:00,80.8,66.1,29.79,SSE,148,1.0,6.0,61,0.00,,---,0.00,VWS V14.01,2013-06-30 23:39:00,
2013-06-30 16:44:00,80.8,65.2,29.79,SE,144,0.0,8.0,59,0.00,,---,0.00,VWS V14.01,2013-06-30 23:44:00,
2013-06-30 16:49:00,80.7,65.5,29.79,South,187,0.0,8.0,60,0.00,,---,0.00,VWS V14.01,2013-06-30 23:49:00,
2013-06-30 16:54:00,81.3,65.1,29.79,SE,140,0.0,8.0,58,0.00,,---,0.00,VWS V14.01,2013-06-30 23:54:00,
2013-06-30 16:59:00,81.7,65.5,29.79,WSW,250,1.0,4.0,58,0.00,,---,0.00,VWS V14.01,2013-06-30 23:59:00,
2013-06-30 17:04:00,82.3,65.6,29.79,SSW,205,0.0,4.0,57,0.00,,---,0.00,VWS V14.01,2013-07-01 00:04:00,
2013-06-30 17:09:00,82.5,65.2,29.79,SW,229,0.0,4.0,56,0.00,,---,0.00,VWS V14.01,2013-07-01 00:09:00,
2013-06-30 17:14:00,82.4,65.1,29.79,SW,227,0.0,7.0,56,0.00,,---,0.00,VWS V14.01,2013-07-01 00:14:00,
2013-06-30 17:19:00,82.1,65.4,29.79,South,170,0.0,7.0,57,0.00,,---,0.00,VWS V14.01,2013-07-01 00:19:00,
2013-06-30 17:24:00,82.2,65.0,29.79,South,175,0.0,7.0,56,0.00,,---,0.00,VWS V14.01,2013-07-01 00:24:00,
2013-06-30 17:29:00,81.9,65.2,29.79,SE,134,0.0,6.0,57,0.00,,---,0.00,VWS V14.01,2013-07-01 00:29:00,
2013-06-30 17:34:00,82.0,65.3,29.78,ENE,78,1.0,6.0,57,0.00,,---,0.00,VWS V14.01,2013-07-01 00:34:00,
2013-06-30 17:39:00,82.6,65.3,29.78,WSW,254,0.0,6.0,56,0.00,,---,0.00,VWS V14.01,2013-07-01 00:39:00,
2013-06-30 17:44:00,82.5,64.2,29.79,SSE,155,1.0,6.0,54,0.00,,---,0.00,VWS V14.01,2013-07-01 00:44:00,
2013-06-30 17:49:00,82.3,65.1,29.78,WSW,256,0.0,6.0,56,0.00,,---,0.00,VWS V14.01,2013-07-01 00:49:00,
2013-06-30 17:54:00,82.8,64.5,29.78,SW,222,0.0,6.0,54,0.00,,---,0.00,VWS V14.01,2013-07-01 00:54:00,
2013-06-30 17:59:00,83.1,64.8,29.79,NW,321,1.0,1.0,54,0.00,,---,0.00,VWS V14.01,2013-07-01 00:59:00,
2013-06-30 18:04:00,83.0,64.7,29.79,West,280,1.0,3.0,54,0.00,,---,0.00,VWS V14.01,2013-07-01 01:04:00,
2013-06-30 18:09:00,82.7,64.4,29.79,SE,146,0.0,5.0,54,0.00,,---,0.00,VWS V14.01,2013-07-01 01:09:00,
2013-06-30 18:14:00,82.3,64.5,29.79,SSW,198,0.0,5.0,55,0.00,,---,0.00,VWS V14.01,2013-07-01 01:14:00,
2013-06-30 18:19:00,82.3,64.5,29.79,SSW,201,0.0,5.0,55,0.00,,---,0.00,VWS V14.01,2013-07-01 01:19:00,
2013-06-30 18:24:00,82.3,65.1,29.79,WSW,241,4.0,5.0,56,0.00,,---,0.00,VWS V14.01,2013-07-01 01:24:00,
2013-06-30 18:29:00,82.1,64.9,29.79,South,188,0.0,1.0,56,0.00,,---,0.00,VWS V14.01,2013-07-01 01:29:00,
2013-06-30 18:34:00,81.7,65.0,29.79,West,266,3.0,3.0,57,0.00,,---,0.00,VWS V14.01,2013-07-01 01:34:00,
2013-06-30 18:39:00,81.3,64.6,29.79,SE,140,0.0,3.0,57,0.00,,---,0.00,VWS V14.01,2013-07-01 01:39:00,
2013-06-30 18:44:00,81.0,64.8,29.79,South,174,0.0,3.0,58,0.00,,---,0.00,VWS V14.01,2013-07-01 01:44:00,
2013-06-30 18:49:00,80.6,64.5,29.79,South,176,0.0,3.0,58,0.00,,---,0.00,VWS V14.01,2013-07-01 01:49:00,
2013-06-30 18:54:00,79.8,64.2,29.79,SSE,155,0.0,5.0,59,0.00,,---,0.00,VWS V14.01,2013-07-01 01:54:00,
2013-06-30 18:59:00,79.3,64.2,29.79,SE,146,0.0,0.0,60,0.00,,---,0.00,VWS V14.01,2013-07-01 01:59:00,
2013-06-30 19:04:00,79.1,64.5,29.79,SSW,194,0.0,1.0,61,0.00,,---,0.00,VWS V14.01,2013-07-01 02:04:00,
2013-06-30 19:09:00,78.8,64.7,29.79,SSW,208,0.0,1.0,62,0.00,,---,0.00,VWS V14.01,2013-07-01 02:09:00,
2013-06-30 19:14:00,78.3,64.2,29.79,SSE,156,0.0,4.0,62,0.00,,---,0.00,VWS V14.01,2013-07-01 02:14:00,
2013-06-30 19:19:00,78.0,64.4,29.80,SSE,157,0.0,4.0,63,0.00,,---,0.00,VWS V14.01,2013-07-01 02:19:00,
2013-06-30 19:24:00,77.8,64.2,29.80,South,176,0.0,4.0,63,0.00,,---,0.00,VWS V14.01,2013-07-01 02:24:00,
2013-06-30 19:29:00,77.6,64.5,29.80,SE,140,0.0,0.0,64,0.00,,---,0.00,VWS V14.01,2013-07-01 02:29:00,
2013-06-30 19:34:00,77.3,64.2,29.80,SW,230,0.0,1.0,64,0.00,,---,0.00,VWS V14.01,2013-07-01 02:34:00,
2013-06-30 19:39:00,77.1,64.4,29.80,SW,229,0.0,1.0,65,0.00,,---,0.00,VWS V14.01,2013-07-01 02:39:00,
2013-06-30 19:44:00,76.7,64.1,29.80,WSW,242,0.0,2.0,65,0.00,,---,0.00,VWS V14.01,2013-07-01 02:44:00,
2013-06-30 19:49:00,76.2,64.4,29.80,WSW,242,0.0,2.0,67,0.00,,---,0.00,VWS V14.01,2013-07-01 02:49:00,
2013-06-30 19:54:00,75.9,64.2,29.80,WSW,242,0.0,2.0,67,0.00,,---,0.00,VWS V14.01,2013-07-01 02:54:00,
2013-06-30 19:59:00,75.4,64.1,29.81,WSW,242,0.0,0.0,68,0.00,,---,0.00,VWS V14.01,2013-07-01 02:59:00,
2013-06-30 20:04:00,75.0,64.2,29.81,WSW,242,0.0,0.0,69,0.00,,---,0.00,VWS V14.01,2013-07-01 03:04:00,
2013-06-30 20:09:00,74.7,64.3,29.81,WSW,242,0.0,0.0,70,0.00,,---,0.00,VWS V14.01,2013-07-01 03:09:00,
2013-06-30 20:14:00,74.4,64.0,29.81,WSW,242,0.0,0.0,70,0.00,,---,0.00,VWS V14.01,2013-07-01 03:14:00,
2013-06-30 20:19:00,74.2,64.2,29.81,WSW,242,0.0,0.0,71,0.00,,---,0.00,VWS V14.01,2013-07-01 03:19:00,
2013-06-30 20:24:00,73.9,63.9,29.81,WSW,242,0.0,0.0,71,0.00,,---,0.00,VWS V14.01,2013-07-01 03:24:00,
2013-06-30 20:29:00,73.4,63.8,29.81,WSW,242,0.0,0.0,72,0.00,,---,0.00,VWS V14.01,2013-07-01 03:29:00,
2013-06-30 20:34:00,72.9,63.8,29.81,WSW,242,0.0,0.0,73,0.00,,---,0.00,VWS V14.01,2013-07-01 03:34:00,
2013-06-30 20:39:00,72.7,63.9,29.81,WSW,242,0.0,0.0,74,0.00,,---,0.00,VWS V14.01,2013-07-01 03:39:00,
2013-06-30 20:44:00,72.5,63.8,29.82,WSW,242,0.0,0.0,74,0.00,,---,0.00,VWS V14.01,2013-07-01 03:44:00,
2013-06-30 20:49:00,72.4,63.7,29.81,WSW,242,0.0,0.0,74,0.00,,---,0.00,VWS V14.01,2013-07-01 03:49:00,
2013-06-30 20:54:00,72.2,63.8,29.82,WSW,242,0.0,0.0,75,0.00,,---,0.00,VWS V14.01,2013-07-01 03:54:00,
2013-06-30 20:59:00,72.0,64.0,29.82,WSW,242,0.0,0.0,76,0.00,,---,0.00,VWS V14.01,2013-07-01 03:59:00,
2013-06-30 21:01:00,72.0,64.0,29.82,WSW,242,0.0,0.0,76,0.00,,---,0.00,VWS V14.01,2013-07-01 04:01:00,
2013-06-30 21:06:00,71.8,64.2,29.83,WSW,242,0.0,1.0,77,0.00,,---,0.00,VWS V14.01,2013-07-01 04:06:00,
2013-06-30 21:11:00,71.6,64.4,29.83,WSW,242,0.0,1.0,78,0.00,,---,0.00,VWS V14.01,2013-07-01 04:11:00,
2013-06-30 21:16:00,71.4,64.6,29.83,WSW,242,0.0,1.0,79,0.00,,---,0.00,VWS V14.01,2013-07-01 04:16:00,
2013-06-30 21:21:00,71.2,64.7,29.83,South,182,0.0,1.0,80,0.00,,---,0.00,VWS V14.01,2013-07-01 04:21:00,
2013-06-30 21:26:00,70.9,64.8,29.83,South,182,0.0,1.0,81,0.00,,---,0.00,VWS V14.01,2013-07-01 04:26:00,
2013-06-30 21:31:00,70.7,64.6,29.83,South,182,0.0,1.0,81,0.00,,---,0.00,VWS V14.01,2013-07-01 04:31:00,
2013-06-30 21:36:00,70.4,64.7,29.84,South,182,0.0,1.0,82,0.00,,---,0.00,VWS V14.01,2013-07-01 04:36:00,
2013-06-30 21:41:00,70.1,64.4,29.84,South,182,0.0,1.0,82,0.00,,---,0.00,VWS V14.01,2013-07-01 04:41:00,
2013-06-30 21:46:00,69.9,64.5,29.84,South,182,0.0,1.0,83,0.00,,---,0.00,VWS V14.01,2013-07-01 04:46:00,
2013-06-30 21:51:00,69.6,64.6,29.85,South,182,0.0,1.0,84,0.00,,---,0.00,VWS V14.01,2013-07-01 04:51:00,
2013-06-30 21:56:00,69.4,64.4,29.85,South,182,0.0,1.0,84,0.00,,---,0.00,VWS V14.01,2013-07-01 04:56:00,
2013-06-30 22:01:00,69.2,64.2,29.85,South,182,0.0,0.0,84,0.00,,---,0.00,VWS V14.01,2013-07-01 05:01:00,
2013-06-30 22:06:00,69.0,64.0,29.85,South,182,0.0,0.0,84,0.00,,---,0.00,VWS V14.01,2013-07-01 05:06:00,
2013-06-30 22:11:00,68.8,64.1,29.85,South,182,0.0,0.0,85,0.00,,---,0.00,VWS V14.01,2013-07-01 05:11:00,
2013-06-30 22:16:00,68.6,63.9,29.85,South,182,0.0,0.0,85,0.00,,---,0.00,VWS V14.01,2013-07-01 05:16:00,
2013-06-30 22:21:00,68.5,64.2,29.86,South,182,0.0,0.0,86,0.00,,---,0.00,VWS V14.01,2013-07-01 05:21:00,
2013-06-30 22:26:00,68.3,64.0,29.85,South,182,0.0,0.0,86,0.00,,---,0.00,VWS V14.01,2013-07-01 05:26:00,
2013-06-30 22:31:00,68.2,63.9,29.86,South,182,0.0,0.0,86,0.00,,---,0.00,VWS V14.01,2013-07-01 05:31:00,
2013-06-30 22:36:00,68.1,64.1,29.86,South,182,0.0,0.0,87,0.00,,---,0.00,VWS V14.01,2013-07-01 05:36:00,
2013-06-30 22:41:00,67.9,63.9,29.86,South,182,0.0,0.0,87,0.00,,---,0.00,VWS V14.01,2013-07-01 05:41:00,
2013-06-30 22:46:00,67.8,63.8,29.86,South,182,0.0,0.0,87,0.00,,---,0.00,VWS V14.01,2013-07-01 05:46:00,
2013-06-30 22:51:00,67.6,63.6,29.86,South,182,0.0,0.0,87,0.00,,---,0.00,VWS V14.01,2013-07-01 05:51:00,
2013-06-30 22:56:00,67.5,63.8,29.86,South,182,0.0,0.0,88,0.00,,---,0.00,VWS V14.01,2013-07-01 05:56:00,
2013-06-30 23:01:00,67.3,63.6,29.86,South,182,0.0,0.0,88,0.00,,---,0.00,VWS V14.01,2013-07-01 06:01:00,
2013-06-30 23:06:00,67.2,63.5,29.86,South,182,0.0,0.0,88,0.00,,---,0.00,VWS V14.01,2013-07-01 06:06:00,
2013-06-30 23:11:00,67.0,63.3,29.86,West,271,0.0,1.0,88,0.00,,---,0.00,VWS V14.01,2013-07-01 06:11:00,
2013-06-30 23:16:00,67.0,63.7,29.86,WNW,284,1.0,3.0,89,0.00,,---,0.00,VWS V14.01,2013-07-01 06:16:00,
2013-06-30 23:21:00,67.2,63.8,29.86,WNW,288,1.0,3.0,89,0.00,,---,0.00,VWS V14.01,2013-07-01 06:21:00,
2013-06-30 23:26:00,67.6,64.2,29.86,NNW,344,0.0,3.0,89,0.00,,---,0.00,VWS V14.01,2013-07-01 06:26:00,
2013-06-30 23:30:00,67.7,64.0,29.86,North,5,0.0,3.0,88,0.00,,---,0.00,VWS V14.01,2013-07-01 06:30:00,
2013-06-30 23:31:00,67.8,64.1,29.86,North,5,0.0,0.0,88,0.00,,---,0.00,VWS V14.01,2013-07-01 06:31:00,
2013-06-30 23:36:00,67.7,63.7,29.86,North,5,0.0,0.0,87,0.00,,---,0.00,VWS V14.01,2013-07-01 06:36:00,
2013-06-30 23:41:00,67.4,63.7,29.86,North,5,0.0,0.0,88,0.00,,---,0.00,VWS V14.01,2013-07-01 06:41:00,
2013-06-30 23:46:00,67.4,63.7,29.86,North,5,0.0,0.0,88,0.00,,---,0.00,VWS V14.01,2013-07-01 06:46:00,
2013-06-30 23:51:00,67.4,63.7,29.86,North,5,0.0,0.0,88,0.00,,---,0.00,VWS V14.01,2013-07-01 06:51:00,
2013-06-30 23:56:00,67.3,63.6,29.86,North,5,0.0,0.0,88,0.00,,---,0.00,VWS V14.01,2013-07-01 06:56:00,